16.10.2021 RTP Rallispecial

Tulokset  Keskeyttäneet (16)  AT-pisteet (1)  Tilastot Lähtöön oikeutettujen lista CSV


        EK2 >> Yleiskilpailun tulos
RTP Rallispecial
16.10.2021
EK 1, LUOKKATULOKSET
2WD
 
EK1
 
Luokka 2 , 2wd nuotti , Lähti:7
EK1, 5.5km, nopein: 80.3km/h
SijNroNimiTulosEro
164Antti Väätäinen4:06,7
267Ville Karjalainen4:07,91,2
363Jani Tenhunen4:08,82,1
465Arto Hartikainen4:15,08,3
569Petri Vesterinen4:17,711,0
668Jukka Leppänen4:20,313,6
766Jarmo Riihinen4:22,015,3
Tulos EK 1 jälkeen
SijNroNimiTulosEro
164Antti Väätäinen4:06,7
267Ville Karjalainen4:07,9 1,2
363Jani Tenhunen4:08,8 2,1
465Arto Hartikainen4:15,0 8,3
569Petri Vesterinen4:17,7 11,0
668Jukka Leppänen4:20,3 13,6
766Jarmo Riihinen4:22,0 15,3

 
Luokka 3 , Classic (Historic) alle 1300cc , Lähti:0
 
Luokka 4 , Classic (Historic) alle 1650 cc , Lähti:0
 
Luokka 5 , Classic (Historic) yli 1650 cc / 4wd , Lähti:2
EK1, 5.5km, nopein: 77.6km/h
SijNroNimiTulosEro
119Jyrki Tartia4:15,3
218Antti Laurila4:32,216,9
Tulos EK 1 jälkeen
SijNroNimiTulosEro
119Jyrki Tartia4:25,3*
218Antti Laurila4:32,2 6,9


*AT-pisteet: 19, Jyrki Tartia, 1L, Vilppilähtö, 10,0
 
Luokka 6 , V-1600 , Lähti:12
EK1, 5.5km, nopein: 80.3km/h
SijNroNimiTulosEro
11Tuukka Kauppinen4:06,7
26Petri Riihimäki4:22,615,9
32Eetu Tukiainen4:25,118,4
47Joni Siltakoski4:25,318,6
54Janne Karhunen4:31,624,9
69Olli Niskanen4:32,325,6
75Juha Lindström4:34,027,3
83Jani Rinne4:39,232,5
917Jukka Koskinen4:43,636,9
1010Marko Oksanen4:47,841,1
118Jari Hiltunen4:48,441,7
1211Markus Oksanen4:51,444,7
Tulos EK 1 jälkeen
SijNroNimiTulosEro
11Tuukka Kauppinen4:06,7
26Petri Riihimäki4:22,6 15,9
32Eetu Tukiainen4:25,1 18,4
47Joni Siltakoski4:25,3 18,6
54Janne Karhunen4:31,6 24,9
69Olli Niskanen4:32,3 25,6
75Juha Lindström4:34,0 27,3
83Jani Rinne4:39,2 32,5
917Jukka Koskinen4:43,6 36,9
1010Marko Oksanen4:47,8 41,1
118Jari Hiltunen4:48,4 41,7
1211Markus Oksanen4:51,4 44,7

 
Luokka 7 , V-1600 (nuoret 15–18) , Lähti:5
EK1, 5.5km, nopein: 74.4km/h
SijNroNimiTulosEro
115Kimi Rajala4:26,1
216Ossi Kemmo4:31,65,5
314Miska Mäkelä4:43,217,1
413juulia suvinen4:45,719,6
512Oona Heimonen5:14,548,4
Tulos EK 1 jälkeen
SijNroNimiTulosEro
115Kimi Rajala4:26,1
216Ossi Kemmo4:31,6 5,5
314Miska Mäkelä4:43,2 17,1
413juulia suvinen4:45,7 19,6
512Oona Heimonen5:14,5 48,4

 
Luokka 8 , H2050/v2000 (kaikki ikäryhmät) , Lähti:0
 
Luokka 9 , HV1000 Autot (Ei alle 15v) , Lähti:0
 
Luokka 10 , Naiset 2WD , Lähti:0
 
Luokka 11 , Seniorit 2WD , Lähti:12
EK1, 5.5km, nopein: 82.4km/h
SijNroNimiTulosEro
199Jukka Lifander4:00,2
239Mika Ihalainen4:05,65,4
341Pekka Moilanen4:07,77,5
442Sami Juusonen4:10,19,9
536Pentti Porko4:10,410,2
640pasi niini4:13,613,4
733Hannu Yli-Kärkelä4:16,316,1
838Kimmo Immonen4:22,622,4
937Juha Kaipainen4:27,327,1
10100Kimmo Herronen4:32,232,0
1132Erik Parkkonen4:41,341,1
1234Matti Kakriainen4:58,958,7
Tulos EK 1 jälkeen
SijNroNimiTulosEro
199Jukka Lifander4:00,2
239Mika Ihalainen4:05,6 5,4
341Pekka Moilanen4:07,7 7,5
442Sami Juusonen4:10,1 9,9
536Pentti Porko4:10,4 10,2
640pasi niini4:13,6 13,4
733Hannu Yli-Kärkelä4:16,3 16,1
838Kimmo Immonen4:22,6 22,4
937Juha Kaipainen4:27,3 27,1
10100Kimmo Herronen4:32,2 32,0
1132Erik Parkkonen4:41,3 41,1
1234Matti Kakriainen4:58,9 58,7

 
Luokka 12 , 2wd HR/ralliautot alle 1400/Trophy 1400 , Lähti:3
EK1, 5.5km, nopein: 76.3km/h
SijNroNimiTulosEro
121Pekka Manninen4:19,5
243Ismo lepistö4:40,220,7
320Petri Hokkanen4:45,425,9
Tulos EK 1 jälkeen
SijNroNimiTulosEro
121Pekka Manninen4:19,5
243Ismo lepistö4:40,2 20,7
320Petri Hokkanen4:45,4 25,9

 
Luokka 13 , 2wd HR/Ralliautot alle 2050cc , Lähti:13
EK1, 5.5km, nopein: 85.9km/h
SijNroNimiTulosEro
156Nico Valkonen3:50,5
245Marko Vartiainen4:05,515,0
370Jarno Pentinpuro4:11,521,0
449Jukka Kokkonen4:12,822,3
554Oskari Jauhiainen4:13,122,6
647Jan Talso4:14,724,2
744Kyösti Kotamäki4:15,725,2
851Tuomo Tuukkanen4:16,025,5
948Elmeri Mäki-Kulmala4:20,129,6
1046Kalle Marttila4:20,229,7
1152Henri Berg4:24,133,6
1255Timi Niini13:17,99:27,4
Tulos EK 1 jälkeen
SijNroNimiTulosEro
156Nico Valkonen3:50,5
245Marko Vartiainen4:05,5 15,0
370Jarno Pentinpuro4:11,5 21,0
449Jukka Kokkonen4:12,8 22,3
554Oskari Jauhiainen4:13,1 22,6
647Jan Talso4:14,7 24,2
744Kyösti Kotamäki4:15,7 25,2
851Tuomo Tuukkanen4:16,0 25,5
948Elmeri Mäki-Kulmala4:20,1 29,6
1046Kalle Marttila4:20,2 29,7
1152Henri Berg4:24,1 33,6
1255Timi Niini13:17,9 9:27,4


Keskeyttäneet: 53, Tomi Kankaanpää, 1B, Virranjakajan pyöriä
 
Luokka 14 , 2wd HR/Ralliautot yli 2050cc , Lähti:6
EK1, 5.5km, nopein: 79.9km/h
SijNroNimiTulosEro
160Tuomo Palola4:07,7
258Petri Katainen4:08,00,3
359Ari Gylden4:10,12,4
461Marko Muhonen4:16,99,2
5101Arto Koikkalainen4:22,614,9
662Pekka Pölönen4:28,320,6
Tulos EK 1 jälkeen
SijNroNimiTulosEro
160Tuomo Palola4:07,7
258Petri Katainen4:08,0 0,3
359Ari Gylden4:10,1 2,4
461Marko Muhonen4:16,9 9,2
5101Arto Koikkalainen4:22,6 14,9
662Pekka Pölönen4:28,3 20,6

 
Luokka 15 , BMW ORIGINAL , Lähti:9
EK1, 5.5km, nopein: 80km/h
SijNroNimiTulosEro
189Pasi Kämäräinen4:07,4
290Jukka Alalantela4:07,80,4
388Eemeli Pohjonen4:10,43,0
486Ari Matilainen4:13,05,6
593Ossi Pohjanharju4:15,27,8
694Kristian Pannula4:27,319,9
791Sami Koskinen4:44,236,8
892Jussi Teppola4:45,638,2
Tulos EK 1 jälkeen
SijNroNimiTulosEro
189Pasi Kämäräinen4:07,4
290Jukka Alalantela4:07,8 0,4
388Eemeli Pohjonen4:10,4 3,0
486Ari Matilainen4:13,0 5,6
593Ossi Pohjanharju4:15,2 7,8
694Kristian Pannula4:27,3 19,9
791Sami Koskinen4:44,2 36,8
892Jussi Teppola4:45,6 38,2


Keskeyttäneet: 87, Pasi Järveläinen, 1B, syy?
 
Luokka 16 , 2wd Proto/sprintti alle 1650cc , Lähti:1
EK1, 5.5km, nopein: 77.8km/h
SijNroNimiTulosEro
196Juha-Pekka Vuokio4:14,5
Tulos EK 1 jälkeen
SijNroNimiTulosEro
196Juha-Pekka Vuokio4:14,5

 
Luokka 17 , 2wd Proto/sprintti yli 1650cc , Lähti:0
 
Luokka 18 , 2wd Proto/sprintti yli 2250cc , Lähti:6
EK1, 5.5km, nopein: 80.5km/h
SijNroNimiTulosEro
171Harri Mielityinen4:06,1
275Jarno Puupponen4:07,91,8
374Tommi Rimpeläinen4:09,53,4
498Juha Pentti4:13,27,1
572Sami Koivusalo4:14,68,5
673Mikko Valldén4:37,731,6
Tulos EK 1 jälkeen
SijNroNimiTulosEro
171Harri Mielityinen4:06,1
275Jarno Puupponen4:07,9 1,8
374Tommi Rimpeläinen4:09,5 3,4
498Juha Pentti4:13,2 7,1
572Sami Koivusalo4:14,6 8,5
673Mikko Valldén4:37,7 31,6

 
Luokka 21 , Alle 5 kilpailua ajaneet , Lähti:10
EK1, 5.5km, nopein: 78.8km/h
SijNroNimiTulosEro
123Aapo Tolmunen4:11,3
228Tomi Kaukonen4:16,24,9
322Kalle Matilainen4:21,910,6
431Jesse Matilainen4:24,112,8
527Tero Heikkinen4:31,720,4
626Jami Rintatalo4:33,622,3
729Aki Sutinen4:46,535,2
825niko setälä4:54,843,5
930antti kuparinen5:12,51:01,2
Tulos EK 1 jälkeen
SijNroNimiTulosEro
123Aapo Tolmunen4:11,3
228Tomi Kaukonen4:16,2 4,9
322Kalle Matilainen4:21,9 10,6
431Jesse Matilainen4:24,1 12,8
527Tero Heikkinen4:31,7 20,4
626Jami Rintatalo4:33,6 22,3
729Aki Sutinen4:46,5 35,2
825niko setälä4:54,8 43,5
930antti kuparinen5:12,5 1:01,2


Keskeyttäneet: 24, Tuomo Lunkka, 1B, vaihdelaatikko